When you browse on this site, cookies collect data to enhance your experience and personalize the content and advertising you see.
Visit our Privacy Policy to learn more. By continuing to use the site, you agree to this use of cookies and data.
  • In Sweden
  • List of Countries
  • For 7 days
  • Water Temperature
  • Satellite Maps
  • Weather Map
  • Weather Widgets
  • user-avatar
    Login

    Hourly Weather Goscinna

    Today, 19 February, Tuesday

    Time Temperature Precipitation Wind Pressure Humidity
    00:00 +3°C° 0 mm 3 mps 745 mmHg 75%
    01:00 +3°C° 0 mm 3 mps 745 mmHg 78%
    02:00 +2°C° 0 mm 3 mps 745 mmHg 78%
    03:00 +2°C° 0 mm 3 mps 744 mmHg 77%
    04:00 +2°C° 0 mm 3 mps 744 mmHg 77%
    05:00 +2°C° 0 mm 3 mps 744 mmHg 78%
    06:00 +1°C° 0 mm 4 mps 744 mmHg 78%
    07:00 +1°C° 0 mm 3 mps 743 mmHg 79%
    08:00 +3°C° 0 mm 4 mps 743 mmHg 73%
    09:00 +3°C° 0 mm 5 mps 743 mmHg 67%
    10:00 +6°C° 0 mm 5 mps 743 mmHg 62%
    11:00 +7°C° 0 mm 5 mps 743 mmHg 58%
    12:00 +8°C° 0 mm 5 mps 742 mmHg 55%
    13:00 +11°C° 0 mm 4 mps 742 mmHg 52%
    14:00 +11°C° 0 mm 4 mps 742 mmHg 54%
    15:00 +10°C° 0 mm 4 mps 742 mmHg 56%
    16:00 +10°C° 0 mm 4 mps 742 mmHg 58%
    17:00 +8°C° 0 mm 4 mps 742 mmHg 63%
    18:00 +7°C° 0 mm 4 mps 742 mmHg 68%
    19:00 +6°C° 0 mm 4 mps 742 mmHg 73%
    20:00 +6°C° 0.1 mm 4 mps 742 mmHg 77%
    21:00 +6°C° 0.1 mm 4 mps 743 mmHg 81%
    22:00 +5°C° 0.1 mm 5 mps 743 mmHg 86%
    23:00 +5°C° 0 mm 5 mps 743 mmHg 87%

    Tomorrow, 20 February, Wednesday

    Time Temperature Precipitation Wind Pressure Humidity
    00:00 +3°C° 0 mm 5 mps 743 mmHg 88%
    01:00 +2°C° 0 mm 5 mps 743 mmHg 89%
    02:00 +2°C° 0 mm 5 mps 743 mmHg 89%
    03:00 +2°C° 0 mm 5 mps 743 mmHg 89%
    04:00 +1°C° 0 mm 5 mps 743 mmHg 90%
    05:00 +1°C° 0 mm 5 mps 744 mmHg 89%
    06:00 +2°C° 0 mm 6 mps 744 mmHg 89%
    07:00 +2°C° 0 mm 6 mps 744 mmHg 88%
    08:00 +2°C° 0.1 mm 6 mps 744 mmHg 86%
    09:00 +2°C° 0.1 mm 6 mps 745 mmHg 84%
    10:00 +2°C° 0.1 mm 6 mps 745 mmHg 82%
    11:00 +2°C° 0.1 mm 6 mps 745 mmHg 81%
    12:00 +2°C° 0.1 mm 6 mps 746 mmHg 80%
    13:00 +3°C° 0.1 mm 6 mps 746 mmHg 79%
    14:00 +3°C° 0.1 mm 6 mps 746 mmHg 77%
    15:00 +3°C° 0.1 mm 6 mps 746 mmHg 75%
    16:00 +3°C° 0.1 mm 6 mps 746 mmHg 74%
    17:00 +3°C° 0.1 mm 5 mps 747 mmHg 76%
    18:00 +3°C° 0.1 mm 5 mps 747 mmHg 78%
    19:00 +4°C° 0.1 mm 4 mps 747 mmHg 80%
    20:00 +4°C° 0 mm 4 mps 747 mmHg 80%
    21:00 +3°C° 0 mm 4 mps 748 mmHg 81%
    22:00 +3°C° 0 mm 4 mps 748 mmHg 82%
    23:00 +3°C° 0 mm 4 mps 748 mmHg 84%

    Day after tomorrow, 21 February, Thursday

    Time Temperature Precipitation Wind Pressure Humidity
    00:00 +3°C° 0 mm 4 mps 748 mmHg 86%
    01:00 +3°C° 0 mm 4 mps 748 mmHg 87%
    02:00 +3°C° 0 mm 4 mps 748 mmHg 89%
    03:00 +3°C° 0 mm 4 mps 748 mmHg 90%
    04:00 +3°C° 0 mm 4 mps 748 mmHg 91%
    05:00 +3°C° 0 mm 4 mps 748 mmHg 90%
    06:00 +3°C° 0 mm 4 mps 748 mmHg 89%
    07:00 +3°C° 0 mm 4 mps 748 mmHg 89%
    08:00 +2°C° 0.1 mm 5 mps 748 mmHg 85%
    09:00 +3°C° 0.1 mm 5 mps 748 mmHg 82%
    10:00 +3°C° 0.1 mm 6 mps 747 mmHg 79%
    11:00 +3°C° 0.4 mm 6 mps 747 mmHg 80%
    12:00 +3°C° 0.4 mm 7 mps 747 mmHg 81%
    13:00 +4°C° 0.4 mm 7 mps 746 mmHg 81%
    14:00 +4°C° 0.2 mm 7 mps 746 mmHg 80%
    15:00 +4°C° 0.2 mm 6 mps 746 mmHg 79%
    16:00 +5°C° 0.2 mm 6 mps 746 mmHg 77%
    17:00 +5°C° 0.9 mm 6 mps 746 mmHg 81%
    18:00 +4°C° 0.9 mm 6 mps 745 mmHg 84%
    19:00 +4°C° 0.9 mm 6 mps 745 mmHg 88%
    20:00 +4°C° 0.6 mm 6 mps 745 mmHg 89%
    21:00 +4°C° 0.6 mm 6 mps 745 mmHg 90%
    22:00 +4°C° 0.6 mm 6 mps 745 mmHg 91%
    23:00 +4°C° 0.5 mm 6 mps 745 mmHg 91%

    22 February, Friday

    Time Temperature Precipitation Wind Pressure Humidity
    00:00 +4°C° 0.5 mm 6 mps 746 mmHg 91%
    01:00 +4°C° 0.5 mm 6 mps 746 mmHg 91%
    02:00 +4°C° 0.8 mm 6 mps 746 mmHg 91%
    03:00 +4°C° 0.8 mm 6 mps 746 mmHg 91%
    04:00 +3°C° 0.8 mm 6 mps 747 mmHg 91%
    05:00 +1°C° 0.1 mm 6 mps 748 mmHg 87%
    06:00 -1°C° 0.1 mm 7 mps 749 mmHg 83%
    07:00 -3°C° 0.1 mm 7 mps 751 mmHg 79%
    08:00 -3°C° 0 mm 7 mps 752 mmHg 73%
    09:00 -3°C° 0 mm 6 mps 753 mmHg 67%
    10:00 -3°C° 0 mm 6 mps 754 mmHg 61%
    11:00 -3°C° 0 mm 6 mps 755 mmHg 58%
    12:00 -2°C° 0 mm 5 mps 756 mmHg 54%
    13:00 -2°C° 0 mm 5 mps 757 mmHg 51%
    14:00 -2°C° 0 mm 5 mps 757 mmHg 50%
    15:00 -2°C° 0 mm 5 mps 757 mmHg 49%
    16:00 -2°C° 0 mm 5 mps 758 mmHg 49%
    17:00 -3°C° 0 mm 4 mps 758 mmHg 51%
    18:00 -4°C° 0 mm 4 mps 759 mmHg 53%
    19:00 -4°C° 0 mm 4 mps 760 mmHg 55%
    20:00 -4°C° 0 mm 3 mps 760 mmHg 53%
    21:00 -4°C° 0 mm 3 mps 760 mmHg 52%
    22:00 -4°C° 0 mm 2 mps 760 mmHg 51%
    23:00 -4°C° 0 mm 2 mps 760 mmHg 50%

    23 February, Saturday

    Time Temperature Precipitation Wind Pressure Humidity
    00:00 -4°C° 0 mm 2 mps 761 mmHg 49%
    01:00 -2°C° 0 mm 1 mps 761 mmHg 47%
    02:00 -2°C° 0 mm 1 mps 761 mmHg 47%
    03:00 -2°C° 0 mm 1 mps 760 mmHg 47%
    04:00 -2°C° 0 mm 1 mps 760 mmHg 46%
    05:00 -2°C° 0 mm 1 mps 760 mmHg 46%
    06:00 -2°C° 0 mm 1 mps 760 mmHg 46%
    07:00 -2°C° 0 mm 1 mps 760 mmHg 46%
    08:00 -1°C° 0 mm 1 mps 760 mmHg 42%
    09:00 0°C° 0 mm 1 mps 760 mmHg 38%
    10:00 0°C° 0 mm 1 mps 760 mmHg 34%
    11:00 +1°C° 0 mm 1 mps 760 mmHg 32%
    12:00 +1°C° 0 mm 2 mps 759 mmHg 30%
    13:00 +1°C° 0 mm 2 mps 759 mmHg 28%
    14:00 +1°C° 0 mm 2 mps 759 mmHg 30%
    15:00 +1°C° 0 mm 2 mps 758 mmHg 33%
    16:00 +1°C° 0 mm 2 mps 758 mmHg 35%
    17:00 +1°C° 0 mm 2 mps 758 mmHg 39%
    18:00 -1°C° 0 mm 2 mps 758 mmHg 44%
    19:00 -1°C° 0 mm 2 mps 758 mmHg 48%
    20:00 +1°C° 0 mm 1 mps 757 mmHg 50%
    21:00 +1°C° 0 mm 1 mps 757 mmHg 52%
    22:00 -1°C° 0 mm 0 mps 757 mmHg 54%
    23:00 0°C° 0 mm 1 mps 757 mmHg 53%

    24 February, Sunday

    Time Temperature Precipitation Wind Pressure Humidity
    00:00 0°C° 0 mm 1 mps 757 mmHg 52%
    01:00 -2°C° 0 mm 2 mps 756 mmHg 52%
    02:00 -1°C° 0 mm 2 mps 756 mmHg 54%
    03:00 -1°C° 0 mm 2 mps 756 mmHg 56%
    04:00 -1°C° 0 mm 2 mps 756 mmHg 58%
    05:00 -1°C° 0 mm 2 mps 756 mmHg 65%
    06:00 -1°C° 0 mm 2 mps 756 mmHg 72%
    07:00 -1°C° 0 mm 2 mps 756 mmHg 79%
    08:00 -1°C° 0 mm 2 mps 756 mmHg 81%
    09:00 +1°C° 0 mm 2 mps 756 mmHg 83%
    10:00 +2°C° 0 mm 2 mps 757 mmHg 85%
    11:00 +2°C° 0 mm 2 mps 757 mmHg 86%
    12:00 +2°C° 0 mm 2 mps 757 mmHg 86%
    13:00 +2°C° 0 mm 3 mps 757 mmHg 87%
    14:00 +3°C° 0 mm 2 mps 757 mmHg 87%
    15:00 +3°C° 0 mm 2 mps 757 mmHg 87%
    16:00 +3°C° 0 mm 2 mps 757 mmHg 87%
    17:00 +2°C° 0 mm 2 mps 758 mmHg 88%
    18:00 +2°C° 0 mm 2 mps 758 mmHg 90%
    19:00 +2°C° 0 mm 2 mps 758 mmHg 91%
    20:00 +1°C° 0 mm 2 mps 758 mmHg 92%
    21:00 +1°C° 0 mm 2 mps 758 mmHg 93%
    22:00 +1°C° 0 mm 1 mps 759 mmHg 93%
    23:00 +1°C° 0 mm 1 mps 759 mmHg 94%
    Show more